HORS 4 (RS82S)

Last updated on Mon Nov 03 2025 00:03:22 GMT+0000 (Coordinated Universal Time)

1 61754U 24199V 25306.53470512 .00030274 00000+0 72784-3 0 9997 2 61754 97.3270 175.2922 0010777 36.8685 323.3301 15.41209203102532
UTC large
Height (km)
Speed (km/s)
/
Latitude / Longitude
Inclination (degrees)
Orbital Period (minutes)
Azimuth
Elevation
Range (km)
Doppler Factor

Next 0 passes for location: London (51.5072 / 0.1276)

Sorry there are no passes over London.